This is the latest recevied weather packets stored in our database for station/object SQ5OUZ-1. If no packets are shown the sender has not sent any weather packets the latest 10 day(s).
| Time | Temp. | Humidity | Pressure | Rain* | Wind** | Luminosity | Snow |
|---|---|---|---|---|---|---|---|
| 1777823001 | 25° C | 19% | 1015.9 hPa | - | - | - | - |
| 1777822098 | 25° C | 19% | 1016 hPa | - | - | - | - |
| 1777821194 | 25° C | 19% | 1016 hPa | - | - | - | - |
| 1777820250 | 25° C | 20% | 1016.2 hPa | - | - | - | - |
| 1777819347 | 25° C | 19% | 1016.4 hPa | - | - | - | - |
| 1777818444 | 25.56° C | 19% | 1016.5 hPa | - | - | - | - |
| 1777817541 | 25.56° C | 19% | 1016.6 hPa | - | - | - | - |
| 1777816637 | 25.56° C | 19% | 1016.8 hPa | - | - | - | - |
| 1777815734 | 25.56° C | 20% | 1017 hPa | - | - | - | - |
| 1777814831 | 25.56° C | 20% | 1017.3 hPa | - | - | - | - |
| 1777813928 | 25.56° C | 20% | 1017.4 hPa | - | - | - | - |
| 1777813024 | 25.56° C | 21% | 1017.6 hPa | - | - | - | - |
| 1777812120 | 25.56° C | 21% | 1017.6 hPa | - | - | - | - |
| 1777811217 | 25.56° C | 21% | 1017.7 hPa | - | - | - | - |
| 1777810314 | 25° C | 20% | 1017.9 hPa | - | - | - | - |
| 1777809410 | 25° C | 20% | 1018 hPa | - | - | - | - |
| 1777808507 | 25° C | 20% | 1018.2 hPa | - | - | - | - |
| 1777807604 | 25.56° C | 19% | 1018.4 hPa | - | - | - | - |
| 1777806700 | 39.44° C | 20% | 1018.4 hPa | - | - | - | - |
| 1777805796 | 26.11° C | 19% | 1018.7 hPa | - | - | - | - |
| 1777804893 | 26.67° C | 19% | 1018.7 hPa | - | - | - | - |
| 1777803990 | 27.22° C | 18% | 1018.8 hPa | - | - | - | - |
| 1777803086 | 27.22° C | 18% | 1019.1 hPa | - | - | - | - |
| 1777802182 | 27.78° C | 18% | 1019.3 hPa | - | - | - | - |
| 1777801279 | 27.78° C | 18% | 1019.4 hPa | - | - | - | - |
* Rain since midnight (hover to see other rain measurements)
** Current wind speed in m/s (hover to see current wind gust speed)